When you browse on this site, cookies collect data to enhance your experience and personalize the content and advertising you see.
Visit our Privacy Policy to learn more. By continuing to use the site, you agree to this use of cookies and data.
  • In Norway
  • List of Countries
  • For 7 days
  • Water Temperature
  • Satellite Maps
  • Weather Map
  • Weather Widgets
  • user-avatar
    Login

    Hourly Weather Wiktoria

    Today, 11 December, Tuesday

    Time Temperature Precipitation Wind Pressure Humidity
    00:00 +15°C° 0 mm 4 mps 751 mmHg 60%
    01:00 +14°C° 0 mm 4 mps 751 mmHg 64%
    02:00 +14°C° 0 mm 4 mps 750 mmHg 68%
    03:00 +13°C° 0 mm 3 mps 750 mmHg 71%
    04:00 +13°C° 0 mm 2 mps 750 mmHg 77%
    05:00 +14°C° 0 mm 3 mps 750 mmHg 73%
    06:00 +16°C° 0 mm 3 mps 750 mmHg 68%
    07:00 +18°C° 0 mm 3 mps 750 mmHg 64%
    08:00 +21°C° 0 mm 2 mps 750 mmHg 57%
    09:00 +25°C° 0 mm 2 mps 750 mmHg 50%
    10:00 +28°C° 0 mm 2 mps 750 mmHg 43%
    11:00 +30°C° 0 mm 2 mps 749 mmHg 37%
    12:00 +31°C° 0 mm 1 mps 749 mmHg 30%
    13:00 +33°C° 0 mm 1 mps 748 mmHg 23%
    14:00 +33°C° 0 mm 1 mps 748 mmHg 22%
    15:00 +34°C° 0 mm 2 mps 747 mmHg 20%
    16:00 +35°C° 0 mm 2 mps 747 mmHg 19%
    17:00 +32°C° 0 mm 2 mps 747 mmHg 24%
    18:00 +30°C° 0 mm 2 mps 747 mmHg 29%
    19:00 +28°C° 0 mm 3 mps 747 mmHg 33%
    20:00 +26°C° 0 mm 3 mps 747 mmHg 41%
    21:00 +24°C° 0 mm 3 mps 747 mmHg 48%
    22:00 +21°C° 0 mm 3 mps 747 mmHg 56%
    23:00 +21°C° 0 mm 3 mps 747 mmHg 59%

    Tomorrow, 12 December, Wednesday

    Time Temperature Precipitation Wind Pressure Humidity
    00:00 +21°C° 0 mm 3 mps 747 mmHg 61%
    01:00 +20°C° 0 mm 3 mps 746 mmHg 64%
    02:00 +21°C° 0 mm 3 mps 746 mmHg 66%
    03:00 +21°C° 0 mm 4 mps 746 mmHg 67%
    04:00 +21°C° 0 mm 4 mps 746 mmHg 69%
    05:00 +22°C° 0 mm 5 mps 746 mmHg 68%
    06:00 +22°C° 0 mm 5 mps 746 mmHg 67%
    07:00 +23°C° 0 mm 6 mps 746 mmHg 66%
    08:00 +26°C° 0 mm 6 mps 746 mmHg 61%
    09:00 +28°C° 0 mm 6 mps 745 mmHg 55%
    10:00 +30°C° 0 mm 6 mps 745 mmHg 50%
    11:00 +32°C° 0 mm 5 mps 744 mmHg 43%
    12:00 +34°C° 0 mm 5 mps 744 mmHg 36%
    13:00 +36°C° 0 mm 4 mps 743 mmHg 29%
    14:00 +36°C° 0.3 mm 5 mps 742 mmHg 30%
    15:00 +35°C° 0.3 mm 5 mps 741 mmHg 31%
    16:00 +34°C° 0.3 mm 5 mps 740 mmHg 32%
    17:00 +32°C° 1.2 mm 4 mps 740 mmHg 43%
    18:00 +28°C° 1.2 mm 4 mps 740 mmHg 53%
    19:00 +26°C° 1.2 mm 4 mps 740 mmHg 64%
    20:00 +25°C° 0.5 mm 3 mps 740 mmHg 66%
    21:00 +24°C° 0.5 mm 3 mps 740 mmHg 68%
    22:00 +24°C° 0.5 mm 3 mps 740 mmHg 70%
    23:00 +22°C° 0.8 mm 3 mps 740 mmHg 73%

    Day after tomorrow, 13 December, Thursday

    Time Temperature Precipitation Wind Pressure Humidity
    00:00 +22°C° 0.8 mm 3 mps 739 mmHg 75%
    01:00 +21°C° 0.8 mm 3 mps 739 mmHg 77%
    02:00 +21°C° 1 mm 4 mps 738 mmHg 81%
    03:00 +21°C° 1 mm 4 mps 738 mmHg 84%
    04:00 +21°C° 1 mm 4 mps 737 mmHg 87%
    05:00 +21°C° 2.9 mm 5 mps 737 mmHg 85%
    06:00 +22°C° 2.9 mm 6 mps 737 mmHg 83%
    07:00 +22°C° 2.9 mm 7 mps 737 mmHg 81%
    08:00 +23°C° 4.2 mm 7 mps 737 mmHg 80%
    09:00 +24°C° 4.2 mm 7 mps 736 mmHg 78%
    10:00 +24°C° 4.2 mm 7 mps 736 mmHg 76%
    11:00 +23°C° 5.8 mm 6 mps 735 mmHg 78%
    12:00 +22°C° 5.8 mm 6 mps 734 mmHg 81%
    13:00 +22°C° 5.8 mm 5 mps 733 mmHg 83%
    14:00 +21°C° 3.8 mm 5 mps 733 mmHg 85%
    15:00 +20°C° 3.8 mm 4 mps 733 mmHg 87%
    16:00 +19°C° 3.8 mm 4 mps 733 mmHg 89%
    17:00 +18°C° 1.1 mm 3 mps 733 mmHg 89%
    18:00 +18°C° 1.1 mm 3 mps 733 mmHg 88%
    19:00 +18°C° 1.1 mm 3 mps 733 mmHg 88%
    20:00 +17°C° 1 mm 4 mps 733 mmHg 89%
    21:00 +15°C° 1 mm 4 mps 734 mmHg 90%
    22:00 +14°C° 1 mm 5 mps 734 mmHg 90%
    23:00 +13°C° 0 mm 5 mps 734 mmHg 89%

    14 December, Friday

    Time Temperature Precipitation Wind Pressure Humidity
    00:00 +13°C° 0 mm 5 mps 734 mmHg 88%
    01:00 +12°C° 0 mm 5 mps 734 mmHg 87%
    02:00 +12°C° 0 mm 5 mps 734 mmHg 86%
    03:00 +12°C° 0 mm 5 mps 735 mmHg 84%
    04:00 +11°C° 0 mm 6 mps 735 mmHg 83%
    05:00 +13°C° 0 mm 6 mps 736 mmHg 80%
    06:00 +12°C° 0 mm 7 mps 736 mmHg 77%
    07:00 +14°C° 0 mm 7 mps 737 mmHg 74%
    08:00 +14°C° 0 mm 7 mps 737 mmHg 70%
    09:00 +15°C° 0 mm 7 mps 738 mmHg 65%
    10:00 +16°C° 0 mm 7 mps 739 mmHg 61%
    11:00 +17°C° 0 mm 6 mps 739 mmHg 59%
    12:00 +17°C° 0 mm 5 mps 739 mmHg 57%
    13:00 +19°C° 0 mm 5 mps 739 mmHg 55%
    14:00 +20°C° 0 mm 4 mps 739 mmHg 53%
    15:00 +20°C° 0 mm 3 mps 739 mmHg 51%
    16:00 +21°C° 0 mm 3 mps 739 mmHg 50%
    17:00 +20°C° 0 mm 2 mps 739 mmHg 53%
    18:00 +19°C° 0 mm 2 mps 740 mmHg 57%
    19:00 +20°C° 0 mm 1 mps 740 mmHg 61%
    20:00 +18°C° 0 mm 2 mps 740 mmHg 62%
    21:00 +17°C° 0 mm 3 mps 741 mmHg 63%
    22:00 +17°C° 0 mm 4 mps 741 mmHg 64%
    23:00 +17°C° 0 mm 3 mps 740 mmHg 67%

    15 December, Saturday

    Time Temperature Precipitation Wind Pressure Humidity
    00:00 +17°C° 0 mm 3 mps 740 mmHg 70%
    01:00 +17°C° 0 mm 3 mps 740 mmHg 74%
    02:00 +16°C° 0 mm 3 mps 740 mmHg 75%
    03:00 +16°C° 0 mm 3 mps 739 mmHg 76%
    04:00 +14°C° 0 mm 3 mps 739 mmHg 77%
    05:00 +16°C° 0 mm 3 mps 740 mmHg 71%
    06:00 +17°C° 0 mm 3 mps 740 mmHg 64%
    07:00 +18°C° 0 mm 3 mps 740 mmHg 58%
    08:00 +20°C° 0 mm 3 mps 740 mmHg 53%
    09:00 +21°C° 0 mm 4 mps 740 mmHg 48%
    10:00 +22°C° 0 mm 5 mps 741 mmHg 43%
    11:00 +22°C° 0 mm 5 mps 740 mmHg 48%
    12:00 +21°C° 0 mm 5 mps 740 mmHg 53%
    13:00 +20°C° 0 mm 4 mps 740 mmHg 58%
    14:00 +21°C° 0 mm 4 mps 740 mmHg 56%
    15:00 +22°C° 0 mm 4 mps 740 mmHg 54%
    16:00 +23°C° 0 mm 5 mps 739 mmHg 52%
    17:00 +22°C° 0.2 mm 4 mps 739 mmHg 57%
    18:00 +22°C° 0.2 mm 3 mps 739 mmHg 61%
    19:00 +21°C° 0.2 mm 3 mps 740 mmHg 66%
    20:00 +19°C° 0.1 mm 3 mps 740 mmHg 70%
    21:00 +18°C° 0.1 mm 2 mps 740 mmHg 74%
    22:00 +17°C° 0.1 mm 2 mps 740 mmHg 78%
    23:00 +17°C° 0 mm 2 mps 740 mmHg 80%

    16 December, Sunday

    Time Temperature Precipitation Wind Pressure Humidity
    00:00 +16°C° 0 mm 2 mps 740 mmHg 81%
    01:00 +16°C° 0 mm 2 mps 740 mmHg 83%
    02:00 +16°C° 0 mm 2 mps 740 mmHg 83%
    03:00 +16°C° 0 mm 2 mps 740 mmHg 84%
    04:00 +15°C° 0 mm 2 mps 740 mmHg 84%
    05:00 +17°C° 0 mm 2 mps 741 mmHg 79%
    06:00 +18°C° 0 mm 3 mps 741 mmHg 74%
    07:00 +19°C° 0 mm 3 mps 742 mmHg 69%
    08:00 +21°C° 0 mm 4 mps 742 mmHg 60%
    09:00 +23°C° 0 mm 5 mps 742 mmHg 51%
    10:00 +26°C° 0 mm 6 mps 742 mmHg 43%
    11:00 +26°C° 0.1 mm 5 mps 741 mmHg 43%
    12:00 +26°C° 0.1 mm 5 mps 741 mmHg 44%
    13:00 +26°C° 0.1 mm 4 mps 741 mmHg 45%
    14:00 +26°C° 0.1 mm 4 mps 741 mmHg 46%
    15:00 +26°C° 0.1 mm 4 mps 741 mmHg 48%
    16:00 +26°C° 0.1 mm 4 mps 741 mmHg 49%
    17:00 +25°C° 0 mm 3 mps 741 mmHg 52%
    18:00 +25°C° 0 mm 2 mps 741 mmHg 55%
    19:00 +25°C° 0 mm 2 mps 741 mmHg 57%
    20:00 +24°C° 0 mm 1 mps 742 mmHg 60%
    21:00 +23°C° 0 mm 1 mps 742 mmHg 62%
    22:00 +22°C° 0 mm 1 mps 742 mmHg 64%
    23:00 +21°C° 0 mm 1 mps 742 mmHg 67%
    Show more